Date String (YYYY-MM-DD hh:mm:ss) UTC,Instrument flags,Ambient pressure (hPa),Sample flow (lpm),Bypass flow (lpm),Sample temperature (°C),Ambient temperature (°C),ASC tube jacket temperature (°C),LED temperature (°C),Box temperature (°C),Sample RH (%),Span deviation,Mass concentration (μg/m³),Mass concentration (μg/m³),Mass concentration (μg/m³)
DateTimeUTC,F1_M11,P_M11,Q1_M11,Q2_M11,T1_M11,T2_M11,T3_M11,T4_M11,T5_M11,U1_M11,ZSPAN_M11,X0_M11,X2_M11,X1_M11
2021-11-26 06:00:00,,0831.3,5.00,0.00,26.4,25.5,00.0,35.5,28.1,07.5,0000.0,0001.07,0000.74,0000.57
2021-11-26 06:01:00,,0831.2,5.01,0.00,26.3,25.5,00.0,35.4,28.1,07.5,0000.0,0001.14,0000.77,0000.57
2021-11-26 06:02:00,,0831.2,4.99,0.00,26.3,25.4,00.0,35.4,28.0,07.5,0000.0,0001.22,0000.79,0000.57
2021-11-26 06:03:00,,0831.2,5.01,0.00,26.3,25.4,00.0,35.4,28.0,07.5,0000.0,0001.30,0000.82,0000.57
2021-11-26 06:04:00,,0831.2,5.00,0.00,26.3,25.5,00.0,35.4,28.1,07.6,0000.0,0001.38,0000.84,0000.58
2021-11-26 06:05:00,,0831.2,5.00,0.00,26.3,25.5,00.0,35.4,28.1,07.6,0000.0,0001.27,0000.80,0000.57
2021-11-26 06:06:00,,0831.2,4.99,0.00,26.3,25.5,00.0,35.4,28.1,07.6,0000.0,0001.21,0000.77,0000.56
2021-11-26 06:07:00,,0831.2,5.00,0.00,26.3,25.5,00.0,35.4,28.1,07.6,0000.0,0001.35,0000.82,0000.56
2021-11-26 06:08:00,,0831.2,5.00,0.00,26.3,25.5,00.0,35.4,28.1,07.6,0000.0,0001.37,0000.83,0000.56
2021-11-26 06:09:00,,0831.2,5.00,0.00,26.3,25.5,00.0,35.4,28.1,07.6,0000.0,0001.42,0000.85,0000.56
2021-11-26 06:10:00,,0831.2,5.01,0.00,26.3,25.6,00.0,35.4,28.1,07.6,0000.0,0001.46,0000.87,0000.56
2021-11-26 06:11:00,,0831.2,4.99,0.00,26.3,25.6,00.0,35.4,28.1,07.7,0000.0,0001.57,0000.90,0000.56
2021-11-26 06:12:00,,0831.2,5.01,0.00,26.4,25.6,00.0,35.4,28.1,07.7,0000.0,0001.57,0000.89,0000.56
2021-11-26 06:13:00,,0831.2,5.01,0.00,26.4,25.6,00.0,35.4,28.2,07.6,0000.0,0001.60,0000.90,0000.56
2021-11-26 06:14:00,,0831.2,4.99,0.00,26.4,25.6,00.0,35.4,28.2,07.8,0000.0,0001.55,0000.89,0000.56
2021-11-26 06:15:00,,0831.2,5.01,0.00,26.4,25.6,00.0,35.4,28.2,07.8,0000.0,0001.46,0000.86,0000.55
2021-11-26 06:16:00,,0831.2,4.99,0.00,26.4,25.6,00.0,35.4,28.2,07.7,0000.0,0001.44,0000.85,0000.55
2021-11-26 06:17:00,,0831.2,5.01,0.00,26.4,25.7,00.0,35.4,28.2,07.7,0000.0,0001.44,0000.84,0000.54
2021-11-26 06:18:00,,0831.2,4.99,0.00,26.4,25.7,00.0,35.4,28.2,07.8,0000.0,0001.33,0000.81,0000.55
2021-11-26 06:19:00,,0831.2,5.00,0.00,26.4,25.7,00.0,35.4,28.2,07.8,0000.0,0001.30,0000.80,0000.55
2021-11-26 06:20:00,,0831.2,5.01,0.00,26.4,25.7,00.0,35.4,28.2,07.8,0000.0,0001.32,0000.79,0000.54
2021-11-26 06:21:00,,0831.2,5.00,0.00,26.4,25.7,00.0,35.4,28.2,07.8,0000.0,0001.23,0000.76,0000.54
2021-11-26 06:22:00,,0831.2,5.00,0.00,26.4,25.7,00.0,35.4,28.2,07.9,0000.0,0001.23,0000.73,0000.53
2021-11-26 06:23:00,,0831.1,5.01,0.00,26.5,25.7,00.0,35.4,28.2,07.9,0000.0,0001.14,0000.69,0000.53
2021-11-26 06:24:00,,0831.0,4.99,0.00,26.5,25.7,00.0,35.4,28.3,07.9,0000.0,0001.09,0000.68,0000.52
2021-11-26 06:25:00,,0831.0,5.00,0.00,26.5,25.7,00.0,35.4,28.3,07.9,0000.0,0001.09,0000.67,0000.52
2021-11-26 06:26:00,,0831.0,5.00,0.00,26.5,25.7,00.0,35.4,28.3,07.9,0000.0,0001.12,0000.67,0000.51
2021-11-26 06:27:00,,0831.0,5.01,0.00,26.5,25.7,00.0,35.4,28.3,07.9,0000.0,0001.15,0000.67,0000.50
2021-11-26 06:28:00,,0831.1,4.99,0.00,26.5,25.7,00.0,35.4,28.3,07.9,0000.0,0001.22,0000.69,0000.50
2021-11-26 06:29:00,,0831.0,5.00,0.00,26.5,25.7,00.0,35.4,28.3,07.9,0000.0,0001.24,0000.68,0000.49
2021-11-26 06:30:00,,0831.0,4.99,0.00,26.5,25.7,00.0,35.4,28.3,08.0,0000.0,0001.23,0000.67,0000.48
2021-11-26 06:31:00,,0831.0,5.02,0.00,26.5,25.7,00.0,35.5,28.3,08.0,0000.0,0001.15,0000.64,0000.48
2021-11-26 06:32:00,,0830.9,4.98,0.00,26.5,25.7,00.0,35.5,28.3,08.0,0000.0,0001.17,0000.65,0000.47
2021-11-26 06:33:00,,0830.9,5.02,0.00,26.5,25.8,00.0,35.5,28.4,08.0,0000.0,0001.21,0000.69,0000.48
2021-11-26 06:34:00,,0830.9,4.99,0.00,26.6,25.8,00.0,35.5,28.4,08.0,0000.0,0001.33,0000.72,0000.48
2021-11-26 06:35:00,,0830.8,5.01,0.00,26.6,25.8,00.0,35.5,28.4,08.0,0000.0,0001.40,0000.73,0000.48
2021-11-26 06:36:00,,0830.8,4.99,0.00,26.6,25.8,00.0,35.5,28.4,07.9,0000.0,0001.45,0000.75,0000.49
2021-11-26 06:37:00,,0830.7,5.01,0.00,26.6,25.8,00.0,35.5,28.4,08.0,0000.0,0001.50,0000.76,0000.49
2021-11-26 06:38:00,,0830.8,4.99,0.00,26.6,25.8,00.0,35.5,28.4,08.0,0000.0,0001.46,0000.76,0000.49
2021-11-26 06:39:00,,0830.8,5.00,0.00,26.5,25.8,00.0,35.5,28.4,07.9,0000.0,0001.35,0000.73,0000.49
2021-11-26 06:40:00,,0830.7,5.01,0.00,26.5,25.7,00.0,35.5,28.3,07.9,0000.0,0001.33,0000.73,0000.49
2021-11-26 06:41:00,,0830.7,4.99,0.00,26.5,25.7,00.0,35.5,28.3,07.9,0000.0,0001.42,0000.77,0000.50
2021-11-26 06:42:00,,0830.6,5.00,0.00,26.5,25.6,00.0,35.5,28.2,07.9,0000.0,0001.45,0000.79,0000.50
2021-11-26 06:43:00,,0830.6,4.99,0.00,26.4,25.6,00.0,35.5,28.2,07.9,0000.0,0001.45,0000.78,0000.51
2021-11-26 06:44:00,,0830.6,5.01,0.00,26.4,25.5,00.0,35.5,28.2,07.9,0000.0,0001.43,0000.77,0000.51
2021-11-26 06:45:00,,0830.6,5.00,0.00,26.4,25.5,00.0,35.5,28.2,08.0,0000.0,0001.30,0000.74,0000.50
2021-11-26 06:46:00,,0830.6,5.00,0.00,26.4,25.5,00.0,35.4,28.2,08.0,0000.0,0001.25,0000.73,0000.50
2021-11-26 06:47:00,,0830.6,5.00,0.00,26.4,25.6,00.0,35.4,28.2,08.0,0000.0,0001.18,0000.71,0000.49
2021-11-26 06:48:00,,0830.6,5.00,0.00,26.4,25.6,00.0,35.4,28.2,08.1,0000.0,0001.16,0000.70,0000.49
2021-11-26 06:49:00,,0830.6,5.00,0.00,26.4,25.6,00.0,35.4,28.2,08.2,0000.0,0001.19,0000.71,0000.50
2021-11-26 06:50:00,,0830.5,5.01,0.00,26.4,25.6,00.0,35.4,28.2,08.2,0000.0,0001.21,0000.72,0000.50
2021-11-26 06:51:00,,0830.5,4.99,0.00,26.4,25.6,00.0,35.4,28.2,08.2,0000.0,0001.27,0000.74,0000.50
2021-11-26 06:52:00,,0830.5,5.01,0.00,26.4,25.6,00.0,35.4,28.2,08.3,0000.0,0001.21,0000.71,0000.50
2021-11-26 06:53:00,,0830.4,4.99,0.00,26.4,25.6,00.0,35.4,28.2,08.4,0000.0,0001.25,0000.73,0000.50
2021-11-26 06:54:00,,0830.5,5.00,0.00,26.4,25.5,00.0,35.4,28.2,08.4,0000.0,0001.32,0000.75,0000.50
2021-11-26 06:55:00,,0830.5,4.99,0.00,26.4,25.5,00.0,35.4,28.2,08.4,0000.0,0001.29,0000.75,0000.50
2021-11-26 06:56:00,,0830.5,5.01,0.00,26.4,25.5,00.0,35.4,28.1,08.4,0000.0,0001.51,0000.78,0000.50
2021-11-26 06:57:00,,0830.5,5.00,0.00,26.3,25.5,00.0,35.4,28.1,08.4,0000.0,0002.17,0000.78,0000.50
2021-11-26 06:58:00,,0830.5,5.00,0.00,26.3,25.5,00.0,35.4,28.1,08.4,0000.0,0002.22,0000.79,0000.49
2021-11-26 06:59:00,,0830.6,5.01,0.00,26.3,25.5,00.0,35.4,28.1,08.4,0000.0,0002.22,0000.79,0000.48
